Weather History for Tacoma Narrows, WA

Change the Weather History Date:

Saturday, November 10, 2012

  Actual Average Record
Temperature  
Mean Temperature 37 °F -  
Max Temperature 44 °F 50 °F 64 °F (1997)
Min Temperature 30 °F 41 °F 30 °F (2012)
Degree Days  
Heating Degree Days 28    
Moisture  
Dew Point 30 °F    
Average Humidity 78    
Maximum Humidity 96    
Minimum Humidity 45    
Precipitation  
Precipitation 0.00 in - - ()
Sea Level Pressure  
Sea Level Pressure 30.10 in    
Wind  
Wind Speed 1 mph (East)    
Max Wind Speed 7 mph    
Max Gust Speed -    
Visibility 7 miles    
Events Fog    
Averages and records for this station are not official NWS values.
T = Trace of Precipitation, MM = Missing Value Source: NWS Daily Summary

Daily Weather History Graph

Daily Weather History Graph

Search for Another Location

Airport:

Trip Planner

Search our weather history database for the weather conditions in past years. The results will help you decide how hot, cold, wet, or windy it might be!

Date:

Astronomy

Nov. 10, 2012 Rise Set
Actual Time 7:07 AM PST 4:40 PM PST
Civil Twilight 6:35 AM PST 5:12 PM PST
Nautical Twilight 5:58 AM PST 5:49 PM PST
Astronomical Twilight 5:22 AM PST 6:25 PM PST
Moon 3:06 AM PST (11/10) 2:41 PM PST (11/10)
Length of Visible Light 10h 37m
Length of Day
9h 32m
Waning Crescent, 13% of the Moon is Illuminated
Nov 10
Waning Crescent
Nov 13
New
Nov 20
First Quarter
Nov 28
Full
Dec 6
Last Quarter

Hourly Weather History & Observations

Time (PST) Temp. Windchill Dew Point Humidity Pressure Visibility Wind Dir Wind Speed Gust Speed Precip Events Conditions
12:53 AM 37.9 °F - 30.0 °F 73% 29.97 in 10.0 mi Calm Calm - N/A   Clear
1:53 AM 37.0 °F - 30.9 °F 79% 29.98 in 10.0 mi Calm Calm - N/A   Clear
2:53 AM 35.1 °F - 28.9 °F 78% 29.99 in 10.0 mi Calm Calm - N/A   Clear
3:53 AM 34.0 °F - 28.9 °F 82% 30.00 in 10.0 mi Calm Calm - N/A   Clear
4:53 AM 33.1 °F - 28.9 °F 85% 30.02 in 10.0 mi Calm Calm - N/A   Clear
5:53 AM 33.1 °F - 30.9 °F 92% 30.04 in 5.0 mi Calm Calm - N/A   Clear
6:53 AM 32.0 °F - 30.0 °F 92% 30.05 in 2.0 mi Calm Calm - N/A   Partly Cloudy
7:00 AM 32.0 °F - 30.2 °F 93% 30.04 in 1.5 mi Calm Calm - N/A   Scattered Clouds
7:09 AM 33.8 °F - 30.2 °F 87% 30.04 in 2.5 mi Calm Calm - N/A   Mostly Cloudy
7:16 AM 30.2 °F - 28.4 °F 93% 30.05 in 0.8 mi Calm Calm - N/A   Mostly Cloudy
7:23 AM 32.0 °F - 30.2 °F 93% 30.05 in 0.8 mi Calm Calm - N/A   Overcast
7:29 AM 32.0 °F - 30.2 °F 93% 30.06 in 0.2 mi Calm Calm - N/A Fog Fog
7:41 AM 33.8 °F - 32.0 °F 93% 30.06 in 0.5 mi Calm Calm - N/A Fog Fog
7:46 AM 33.8 °F - 32.0 °F 93% 30.06 in 2.0 mi Calm Calm - N/A   Overcast
7:53 AM 34.0 °F 31.0 °F 33.1 °F 96% 30.07 in 3.0 mi ESE 3.5 mph - N/A   Overcast
8:53 AM 35.1 °F 31.0 °F 33.1 °F 92% 30.09 in 5.0 mi South 4.6 mph - N/A   Overcast
9:53 AM 37.9 °F - 33.1 °F 83% 30.11 in 10.0 mi Calm Calm - N/A   Scattered Clouds
10:53 AM 39.9 °F - 32.0 °F 73% 30.12 in 10.0 mi Calm Calm - N/A   Clear
11:53 AM 41.0 °F 39.0 °F 30.9 °F 67% 30.12 in 10.0 mi Variable 3.5 mph - N/A   Clear
12:53 PM 43.0 °F 41.3 °F 30.9 °F 62% 30.14 in 10.0 mi SSW 3.5 mph - N/A   Clear
1:53 PM 44.1 °F 40.1 °F 26.1 °F 49% 30.15 in 10.0 mi Variable 6.9 mph - N/A   Clear
2:53 PM 44.1 °F 40.8 °F 25.0 °F 47% 30.14 in 10.0 mi NE 5.8 mph - N/A   Clear
3:53 PM 44.1 °F 42.5 °F 24.1 °F 45% 30.17 in 10.0 mi NNE 3.5 mph - N/A   Clear
4:53 PM 39.9 °F 37.8 °F 25.0 °F 55% 30.17 in 10.0 mi North 3.5 mph - N/A   Clear
5:53 PM 37.9 °F - 26.1 °F 62% 30.19 in 10.0 mi Calm Calm - N/A   Clear
6:53 PM 37.0 °F - 25.0 °F 62% 30.20 in 10.0 mi Calm Calm - N/A   Clear
7:53 PM 37.4 °F - 28.4 °F 70% 30.19 in 10.0 mi Calm Calm - N/A   Clear
8:53 PM 37.9 °F - 32.0 °F 79% 30.20 in 10.0 mi Calm Calm - N/A   Clear
9:53 PM 35.1 °F - 28.9 °F 78% 30.22 in 10.0 mi Calm Calm - N/A   Clear
10:53 PM 37.0 °F 34.5 °F 32.0 °F 82% 30.22 in 10.0 mi SE 3.5 mph - N/A   Clear
11:53 PM 36.0 °F 33.3 °F 30.0 °F 79% 30.23 in 10.0 mi ESE 3.5 mph - N/A   Clear